Hourly Data Report for September 26, 2020

BRIER ISLAND
NOVA SCOTIA
Current Station Operator: ECCC - MSC

44°17'09.000" N
66°20'48.000" W
15.80 m
8200604
71988
WVU

Download Data

Hourly Data (September 2020)
Hourly Data Report for September 26, 2020
TIME Temp Definition
°C
Dew Point Definition
°C
Rel Hum Definition
%
Wind Dir Definition
10's deg

Wind Spd Definition
km/h
Visibility Definition
km
Stn Press Definition
kPa
Hmdx Definition


Wind Chill Definition


Weather Definition


00:00 12.5 8.4 76 14 1   101.96     LegendNANA
01:00 11.8 9.4 85 11 5   101.94     LegendNANA
02:00 11.7 9.3 85 13 10   101.93     LegendNANA
03:00 12.2 8.9 80 10 7   101.93     LegendNANA
04:00 11.5 9.0 84 12 8   101.95     LegendNANA
05:00 11.8 9.1 84 14 8   101.95     LegendNANA
06:00 11.7 9.2 85 15 15   101.94     LegendNANA
07:00 12.1 9.7 85 13 16   101.98     LegendNANA
08:00 11.6 11.6 100 15 27   101.96     LegendNANA
09:00 11.9 11.9 100 14 27   101.99     LegendNANA
10:00 12.5 12.5 100 15 22   102.00     LegendNANA
11:00 12.7 12.7 100 15 29   101.94     LegendNANA
12:00 13.1 13.1 100 15 29   101.93     LegendNANA
13:00 13.2 13.2 100 15 27   101.91     LegendNANA
14:00 13.2 13.2 100 15 23   101.86     LegendNANA
15:00 13.0 13.0 100 16 23   101.84     LegendNANA
16:00 12.5 12.5 100 16 24   101.83     LegendNANA
17:00 11.9 11.9 100 16 22   101.83     LegendNANA
18:00 11.7 11.7 100 17 20   101.88     LegendNANA
19:00 11.4 11.4 100 17 16   101.91     LegendNANA
20:00 11.5 11.5 100 16 15   101.88     LegendNANA
21:00 12.0 12.0 100 15 23   101.86     LegendNANA
22:00 12.1 12.1 100 15 23   101.84     LegendNANA
23:00 12.5 12.5 100 15 17   101.83     LegendNANA

Notes on Data Quality.

Legend

  • E = Estimated
  • M = Missing
  • NA = Not Available*
  • [empty] = Indicates an unobserved value
Date modified: